Tracking 27419 objects as of 9-Jun-2023
HD Live streaming from Space Station
objects crossing your sky now

ATLAS 5 CENTAUR DEB

Track ATLAS 5 CENTAUR DEB now!


NORAD ID: 43957
Int'l Code: 2014-055L
Perigee: 7,784.3 km
Apogee: 34,548.3 km
Inclination: 21.3 °
Period: 758.0 minutes
Semi major axis: 27537 km
RCS: Unknown
Launch date: September 17, 2014
Source: United States (US)
Launch site: AIR FORCE EASTERN TEST RANGE (AFETR)

Note: This is SATELLITE DEBRIS
Your satellite tracking list
Your tracking list is empty




NASA's NSSDC Master Catalog

Two Line Element Set (TLE):
1 43957U 14055L   23149.36469383 -.00000140  00000-0  00000-0 0  9990
2 43957  21.2535 251.5476 4859586 346.3873   4.1542  1.89985698 32900
Source of the keplerian elements: AFSPC